RH
32 35 38 37 35 33 30 30 33 36 35 34 34 33 32 30 29 28 25 22 18 15 14 11 11 11 12 13 15 16 17 19 18 19 18 18 17 16 16 16 18 18 19 19 19 19 18 19 19 20 18 16 15 13 11 8 6 6 6 4 4 4 6 9 19 39 53 53 50 44 50 64 73 79 75 75 74 70 80 83 77 77 74 71 69
26 34 36 38 37 36 32 30 35 37 35 36 34 34 32 30 29 28 26 23 18 15 14 12 11 11 12 14 15 17 17 19 19 19 19 18 17 17 17 17 18 18 20 20 20 19 19 20 21 22 20 18 16 15 13 9 6 6 6 5 4 5 6 8 13 26 46 53 52 56 68 76 72 71 70 66 66 71 84 89 83 79 73 73 79
22 31 34 40 42 41 36 30 35 37 36 36 34 34 33 31 29 28 27 23 19 15 13 11 11 11 12 13 15 17 18 19 19 20 20 19 18 18 19 19 19 20 21 21 21 21 21 21 23 23 22 20 18 17 15 11 7 5 6 6 4 5 7 8 10 16 35 56 70 78 76 77 79 78 78 71 67 74 84 86 82 78 72 67 62
21 26 34 41 46 47 38 31 34 37 38 37 35 35 33 32 29 28 27 23 20 15 13 11 10 11 12 13 15 17 18 19 20 21 20 19 19 19 20 20 20 20 22 22 22 22 22 22 23 24 24 22 19 19 18 14 9 6 6 7 6 5 8 12 17 21 32 49 66 81 79 80 86 82 80 81 77 77 81 78 69 58 47 33 20
22 24 33 39 48 47 38 33 32 37 40 38 35 35 34 32 29 28 26 23 21 16 13 11 10 11 12 13 15 17 18 19 21 21 21 20 20 20 20 21 21 21 22 23 23 23 23 24 24 24 25 24 22 21 20 18 12 8 5 6 8 7 8 12 23 34 44 49 51 58 66 72 77 74 73 75 71 63 56 45 31 21 13 7 4
23 23 30 38 47 46 41 34 31 39 40 39 37 35 35 32 29 27 26 23 20 18 14 12 10 11 12 13 15 17 17 19 21 22 21 21 20 20 20 21 22 22 23 23 23 23 23 25 24 24 24 24 24 22 22 21 17 13 8 5 5 7 7 9 17 27 36 43 43 41 44 53 57 55 49 42 34 25 18 11 7 6 5 6 6
21 25 35 43 49 47 41 32 32 41 41 40 38 36 35 32 29 27 25 23 20 18 15 12 11 11 12 13 14 16 18 19 21 22 22 22 21 20 20 21 22 23 23 24 24 24 24 26 26 24 23 23 24 24 23 22 22 18 14 10 6 6 6 8 10 16 24 29 33 29 23 25 27 23 17 12 10 8 8 8 9 10 10 11 10
30 35 41 45 43 41 36 30 35 41 42 42 38 38 36 32 30 27 26 23 21 17 15 13 11 11 12 13 14 16 18 19 20 22 22 22 21 20 21 21 22 23 22 23 25 25 25 27 28 26 24 23 22 23 24 23 23 22 19 17 13 12 10 11 12 13 20 19 15 13 9 8 9 8 7 7 8 8 8 8 8 8 9 9 10
39 36 34 35 33 33 32 32 38 42 43 43 40 39 36 34 30 28 27 24 22 17 15 13 11 11 11 13 14 15 17 19 19 21 22 22 22 21 21 21 21 22 22 23 25 26 26 27 28 28 26 24 23 22 23 24 23 23 23 21 19 18 19 20 22 22 22 17 10 8 7 6 6 5 5 5 4 4 4 4 4 4 4 4 5
35 32 32 32 32 32 34 37 40 43 44 43 42 40 38 35 32 30 28 27 24 19 16 13 12 11 11 13 13 14 17 19 19 20 22 23 23 22 21 22 22 22 22 24 25 26 26 27 27 28 28 27 25 23 22 23 23 24 23 23 23 21 23 23 24 26 25 22 20 18 16 15 13 12 11 10 9 9 8 7 7 6 6 5 5
38 38 39 37 36 35 38 41 43 44 46 45 43 42 40 36 34 32 30 29 25 21 17 13 11 11 11 13 14 14 16 19 19 20 21 23 23 23 22 22 23 23 23 24 25 26 26 26 27 26 27 27 27 26 23 22 23 23 23 23 23 23 24 25 26 29 27 25 25 24 24 24 22 22 21 20 20 19 18 17 16 14 14 13 12
43 42 41 39 39 41 42 45 45 45 47 46 46 44 41 38 36 34 32 30 27 25 19 14 11 11 12 12 14 14 16 19 20 20 20 23 23 23 23 23 23 23 23 23 24 25 26 26 27 27 27 27 27 27 25 23 22 22 23 23 23 23 24 27 32 30 26 23 23 24 23 24 24 24 24 24 24 23 24 23 23 22 22 21 20
42 43 42 42 43 44 46 48 47 46 49 48 48 46 43 41 39 36 34 33 30 27 22 17 12 11 12 12 14 14 16 18 20 20 20 22 23 24 24 24 24 23 23 23 24 24 25 26 27 27 27 27 26 27 27 25 23 22 22 22 23 23 23 27 30 24 22 23 22 23 22 22 23 22 23 23 23 23 23 23 24 23 24 24 23
40 42 42 44 46 48 49 50 49 48 50 50 50 48 46 44 42 40 37 36 33 29 25 19 14 12 12 13 14 14 15 16 19 20 20 22 23 24 25 25 26 24 24 23 24 24 25 26 27 27 27 27 26 26 27 26 25 23 22 22 22 22 22 23 26 24 21 22 22 22 22 22 22 22 22 22 22 22 22 22 22 22 23 23 23
34 39 42 46 48 50 50 50 50 50 52 51 52 51 48 46 44 42 40 39 35 31 27 21 18 14 12 15 15 14 15 15 17 19 20 22 22 24 25 26 26 25 25 24 25 25 26 27 27 27 27 27 27 26 25 26 26 25 22 22 21 22 22 21 29 32 24 22 23 23 23 23 23 22 22 22 22 21 21 21 21 22 22 22 22
30 36 39 46 49 50 52 52 51 51 53 52 53 53 51 49 47 45 43 41 37 32 27 23 21 16 17 20 16 14 15 15 16 18 20 21 22 24 24 25 26 26 26 25 26 26 26 27 27 27 28 28 27 27 25 25 26 26 25 23 22 22 22 22 31 34 25 22 24 23 23 23 23 24 23 23 23 22 22 22 22 21 21 21 21
34 37 38 45 50 53 55 54 54 52 54 54 55 54 53 51 49 49 47 45 39 33 29 25 22 18 25 26 16 14 15 15 16 17 20 22 22 22 24 25 25 26 26 26 27 27 26 26 27 27 27 28 30 29 27 25 25 26 26 25 23 22 22 24 29 31 26 24 24 24 25 24 24 25 24 24 24 23 23 22 23 23 22 22 21
37 41 42 47 51 57 59 59 59 57 56 57 58 56 55 54 54 54 51 48 41 36 31 27 23 19 23 22 15 14 15 17 16 17 20 23 23 22 23 24 25 26 26 27 26 27 26 27 28 27 28 32 35 30 28 27 25 25 27 28 25 23 22 22 25 26 25 24 24 24 25 25 26 26 26 27 26 25 25 24 24 23 23 23 23
39 43 45 48 55 62 64 65 65 63 63 62 62 60 60 60 60 61 57 51 43 39 35 30 26 21 20 20 25 26 17 17 18 20 21 22 23 22 22 23 24 25 26 27 26 27 26 28 29 28 32 36 36 30 28 29 26 26 25 27 27 26 24 25 30 30 25 23 24 24 25 26 26 27 28 28 28 28 28 28 27 26 26 25 24
42 43 45 50 58 65 69 70 69 69 68 67 67 66 67 68 68 67 62 57 49 44 40 35 29 24 21 19 28 23 10 16 17 18 21 21 22 20 21 22 23 25 26 27 26 27 25 27 28 29 35 35 35 34 31 29 27 27 25 26 26 26 27 30 35 31 26 24 24 24 24 25 26 27 28 28 29 29 29 29 29 28 28 27 26
47 44 43 50 58 65 72 73 72 72 72 71 71 70 70 71 72 72 69 66 59 53 47 41 34 28 25 20 20 12 19 36 22 15 19 18 20 19 21 21 22 24 25 27 26 26 25 26 26 28 33 32 33 35 34 32 30 27 26 26 24 26 31 33 33 29 26 26 26 27 26 25 26 27 27 28 29 29 29 29 29 28 28 28 27
51 51 48 51 59 67 71 73 74 74 72 69 67 65 68 71 73 75 75 72 67 63 55 48 42 34 30 25 22 22 43 56 35 30 25 13 19 18 20 21 21 24 25 26 26 26 26 25 26 26 28 31 33 35 38 37 32 29 27 27 24 29 36 36 34 29 25 26 26 26 26 26 26 27 27 27 28 28 29 29 28 28 28 27 27
55 55 56 56 60 68 71 72 73 69 65 61 58 57 63 71 74 76 77 75 71 66 59 53 50 45 36 32 42 49 61 68 62 63 38 10 16 16 17 21 21 26 27 27 27 27 27 25 26 25 26 33 35 34 42 45 39 33 28 27 28 34 41 37 33 28 24 25 25 25 25 26 26 26 27 27 27 28 28 28 28 28 28 27 27
58 55 59 60 61 69 71 70 67 62 56 53 52 53 63 73 77 81 82 80 74 69 65 64 62 57 49 47 61 69 71 76 74 75 53 24 21 17 17 21 21 28 28 28 30 29 29 27 26 27 32 39 39 37 46 52 48 40 32 31 31 36 41 38 34 31 28 26 24 26 25 25 26 26 27 27 27 28 28 28 27 27 27 27 27
62 59 60 60 63 70 69 64 62 56 50 51 54 55 61 72 79 81 83 83 80 76 74 75 73 71 72 67 67 72 73 77 75 74 68 52 38 24 19 21 21 25 25 26 30 29 30 30 30 35 41 47 49 47 49 55 60 56 47 41 36 37 40 39 37 37 35 31 27 26 27 26 27 27 27 27 28 28 28 28 28 27 27 27 26
62 62 61 59 61 63 62 60 57 51 45 49 58 60 62 72 78 75 77 82 82 81 78 78 76 75 84 80 73 77 76 78 81 78 74 69 53 33 28 28 24 25 27 31 34 35 37 38 41 45 49 55 59 58 56 66 75 66 57 50 44 43 44 40 39 40 39 37 32 28 28 28 28 28 29 29 29 29 29 28 28 28 27 26 26
59 59 59 58 57 54 55 56 53 48 47 49 54 62 70 76 77 71 72 78 82 83 80 78 74 73 81 83 80 81 81 81 83 77 72 72 64 52 50 43 35 36 39 40 41 42 44 46 49 51 56 62 65 69 70 77 81 70 60 55 52 51 49 47 44 42 41 40 37 31 30 30 29 30 29 29 29 29 29 28 28 28 27 27 26
59 58 57 57 56 54 53 53 51 51 53 53 51 56 70 77 77 73 69 70 77 82 80 77 76 78 80 83 82 77 81 88 89 82 75 75 74 68 62 51 44 44 45 45 45 44 46 50 52 53 57 59 64 74 79 77 73 70 65 59 59 58 54 54 51 48 45 40 38 34 32 31 29 30 29 29 29 29 29 28 28 27 26 26 25
60 60 58 58 61 59 57 56 54 52 53 52 50 55 69 76 73 72 69 68 77 82 82 80 82 84 80 80 83 81 83 87 87 84 78 78 76 68 59 51 49 47 47 49 48 48 49 53 56 56 56 58 64 73 79 75 65 61 60 59 61 62 60 56 53 54 51 43 40 38 34 31 30 29 29 28 28 28 28 27 27 27 26 26 26
58 59 61 69 75 69 64 62 55 50 51 54 54 55 63 69 65 63 71 75 78 79 78 80 81 81 79 80 84 85 87 87 88 87 79 76 73 65 57 54 53 53 55 55 55 55 56 58 59 59 59 62 69 75 80 79 70 59 58 65 62 59 64 60 59 60 56 48 43 41 39 36 31 28 28 28 28 27 27 27 26 26 26 25 26
54 60 69 76 75 71 71 68 61 56 56 59 56 51 56 69 68 59 66 73 74 77 76 75 76 76 77 79 80 81 83 85 89 88 82 77 72 63 57 56 56 58 59 57 59 59 58 61 61 63 65 67 73 77 78 77 74 68 69 79 68 56 62 63 64 65 60 54 48 45 44 41 36 31 30 28 28 28 27 28 26 26 27 29 32
50 63 73 70 65 69 73 68 67 66 62 62 57 56 65 73 70 60 65 73 78 84 81 78 77 75 76 82 84 83 83 83 84 86 84 79 72 63 59 60 60 61 60 58 58 58 60 64 62 65 68 71 78 78 76 73 75 78 79 80 67 57 59 58 60 62 60 58 56 54 49 45 41 35 32 31 29 29 28 29 31 34 39 43 47
48 60 67 66 64 68 69 62 63 69 70 69 62 66 77 77 71 68 70 76 83 88 86 87 87 81 80 87 91 88 85 85 84 84 81 75 69 65 64 66 65 64 62 59 58 59 63 65 61 63 65 68 77 78 79 77 74 80 81 75 65 57 56 54 57 61 58 57 59 60 55 47 41 36 33 32 33 37 41 47 52 56 59 61 61
47 54 64 70 62 57 59 55 56 68 74 70 63 68 79 75 71 72 73 76 81 86 91 94 95 91 87 87 89 87 83 82 83 83 80 76 70 67 68 67 65 63 62 61 62 61 59 60 61 63 64 65 70 74 79 76 72 80 79 71 62 53 53 54 58 63 58 57 60 60 58 50 44 44 41 43 52 60 64 66 67 68 68 67 66
43 50 66 70 57 49 53 53 56 66 69 65 63 68 73 71 72 74 76 78 79 85 93 95 96 95 92 89 88 88 83 80 81 80 79 77 72 70 69 65 63 61 60 63 66 63 57 61 66 64 66 69 69 74 78 75 77 80 72 60 53 49 52 54 60 67 61 60 65 64 63 60 62 63 55 58 68 72 70 68 69 69 68 67 65
36 48 64 64 57 52 47 51 57 61 63 63 66 70 70 68 70 71 72 77 80 87 94 94 94 93 93 91 88 86 82 81 80 78 78 77 74 71 69 67 64 62 63 65 65 63 57 57 59 58 65 72 70 75 79 78 78 73 63 55 51 49 52 55 62 69 67 69 72 71 73 72 74 74 68 69 72 72 70 68 68 65 61 59 58
32 46 63 63 63 60 49 48 53 58 62 63 68 72 68 64 66 67 69 76 83 89 93 92 91 92 95 92 88 85 81 81 80 78 79 78 76 72 70 68 66 65 65 61 58 60 57 53 58 63 67 71 73 76 79 79 73 64 61 56 51 50 56 63 68 71 73 75 75 75 79 77 76 77 76 75 72 69 65 61 58 53 51 51 53
32 45 64 67 63 60 53 48 49 57 62 64 66 65 62 63 69 70 71 77 86 90 91 90 89 91 97 93 88 86 82 80 81 80 79 78 76 72 71 69 68 72 69 60 56 59 62 59 66 74 70 70 78 80 78 76 71 68 64 57 56 59 67 73 72 71 73 75 78 79 79 80 80 78 74 71 69 66 60 54 50 49 51 52 52
32 42 64 69 60 59 56 45 45 52 56 60 57 53 60 68 72 72 73 80 88 91 90 91 90 91 96 91 85 85 82 78 80 81 78 76 75 72 74 71 72 81 77 65 62 63 64 60 63 72 69 68 77 81 77 74 73 75 70 65 67 70 74 77 71 71 76 78 82 82 79 82 79 69 65 66 68 72 66 56 55 58 60 56 52
29 37 58 68 59 60 56 41 38 45 48 53 53 50 58 68 72 75 77 82 87 90 92 93 90 89 91 86 82 84 81 77 78 78 77 75 74 75 76 72 73 80 73 62 63 65 59 53 59 68 67 67 75 78 74 72 73 75 76 76 77 77 80 80 76 78 82 81 80 77 74 76 71 62 63 63 61 67 65 57 61 62 58 56 52
26 31 48 61 58 52 48 40 38 41 43 48 56 56 59 67 74 77 77 80 85 87 90 90 86 84 87 85 83 83 80 77 76 76 78 75 75 79 78 74 74 72 65 60 63 65 59 58 66 70 69 72 77 77 70 70 75 77 78 78 79 80 80 80 81 82 81 81 77 71 67 67 68 65 67 67 61 62 61 58 64 62 60 62 58
27 31 40 50 51 42 36 40 41 41 41 45 58 64 65 70 73 74 76 81 86 85 85 87 85 84 86 87 85 84 81 78 75 74 78 77 77 81 77 77 78 66 59 60 61 63 61 65 70 71 71 71 74 78 73 73 78 77 75 75 76 76 74 76 80 79 78 76 71 68 67 67 70 68 68 69 64 63 62 60 63 62 65 68 66
30 34 39 42 47 43 33 37 41 39 37 41 55 63 67 71 70 71 74 82 87 84 84 87 86 83 82 84 83 83 81 75 72 71 72 75 77 77 73 76 78 64 56 60 61 63 64 65 66 68 72 69 69 76 76 79 82 76 72 73 75 73 72 75 75 77 79 72 64 66 69 70 73 70 67 65 59 59 59 60 63 65 67 65 63
33 35 38 39 46 45 34 36 41 39 36 38 49 57 63 67 69 72 72 78 83 82 86 88 85 83 84 86 83 81 77 68 66 64 62 66 69 69 70 70 66 58 56 61 63 66 66 65 63 66 71 70 69 72 75 82 82 75 73 75 75 74 74 75 73 78 81 69 61 65 67 69 72 72 69 63 57 58 59 62 67 66 64 63 57
34 36 39 40 45 41 34 37 40 41 38 38 45 51 57 62 67 72 71 74 77 78 84 86 85 84 82 83 80 75 73 67 66 67 64 66 63 59 62 63 56 52 55 59 61 63 62 62 63 65 70 68 67 71 74 77 77 75 76 77 77 77 75 73 71 75 78 68 61 65 68 68 71 73 71 64 60 60 61 65 65 52 50 61 63
39 41 42 43 46 40 35 36 38 41 40 37 44 49 52 59 66 69 70 73 73 69 73 75 78 79 75 75 74 68 64 60 60 63 65 68 62 53 54 58 56 55 56 58 60 60 59 63 66 66 70 71 71 77 77 75 75 73 75 76 77 78 76 73 70 70 74 71 65 65 67 69 72 72 70 66 61 61 63 61 51 40 44 58 60
49 48 48 48 48 43 37 35 38 41 40 39 46 48 49 57 65 68 70 70 66 63 65 66 69 69 65 64 64 61 58 55 53 55 60 63 59 53 53 55 58 61 59 59 61 60 59 67 73 69 70 72 72 77 79 80 78 73 75 76 73 77 79 77 73 70 72 73 68 65 65 70 71 68 68 67 62 62 61 48 33 30 39 48 52
55 53 53 53 50 45 39 37 38 39 40 44 49 51 54 63 69 68 65 61 59 62 60 59 59 56 54 53 53 54 54 52 50 51 56 58 55 53 55 55 57 61 60 59 60 62 64 72 79 74 71 73 72 70 74 80 80 76 79 78 75 78 77 77 78 75 76 77 71 67 65 65 64 63 65 65 64 62 51 32 21 19 25 31 38
51 54 55 56 52 45 41 40 39 37 41 46 48 53 62 71 71 64 60 60 63 63 54 50 52 51 52 52 51 53 53 51 52 52 54 55 50 46 51 56 56 58 60 60 60 61 63 68 73 69 67 73 73 68 71 76 76 77 81 80 79 80 76 77 82 82 82 81 77 72 64 60 59 60 63 64 65 60 41 23 17 15 16 16 17
42 53 55 58 55 45 42 42 38 37 43 47 46 52 64 70 66 59 59 61 62 60 52 49 48 46 46 47 50 55 56 56 58 56 57 60 51 40 45 51 51 55 58 58 58 57 57 63 71 68 64 67 69 69 74 74 74 77 79 78 78 80 80 80 82 85 86 86 84 75 63 58 58 60 62 63 66 59 38 22 16 14 13 11 10
32 46 53 58 57 46 42 41 37 39 45 46 46 52 60 62 60 60 61 59 58 57 51 46 42 42 45 46 49 54 55 57 58 56 58 63 58 50 50 49 47 52 53 51 55 55 54 63 71 68 61 61 67 72 73 73 76 78 78 79 79 82 84 81 80 83 83 85 87 78 66 62 59 60 61 62 66 56 34 20 17 14 12 10 11
Wind_Speed
10 11 12 14 14 13 12 12 13 14 14 14 13 12 11 10 9 9 8 8 7 7 7 8 8 9 10 11 11 10 8 8 8 8 9 10 12 13 14 15 15 16 16 17 18 18 19 20 21 21 20 20 21 21 21 21 19 18 16 17 18 19 20 20 21 22 23 23 22 20 18 17 16 15 14 14 12 11 11 12 12 11 11 11 10
12 12 12 13 13 12 11 12 14 14 15 14 13 12 11 11 10 9 8 8 7 6 6 7 8 9 10 11 11 10 9 8 8 8 9 10 11 13 14 14 15 15 16 17 17 18 18 20 20 20 20 20 21 21 22 21 20 19 17 18 20 21 22 23 23 24 24 23 22 19 17 15 14 14 13 13 12 11 10 11 12 11 11 11 10
13 13 13 13 13 12 11 12 13 14 15 14 13 13 12 11 10 9 8 7 7 6 6 6 8 9 10 11 11 10 10 9 8 8 9 10 11 12 13 14 14 15 16 17 17 17 18 19 20 20 20 20 21 21 21 22 21 20 19 19 21 22 22 23 24 24 23 22 19 17 15 14 13 13 13 13 12 10 9 10 11 10 10 10 9
15 15 14 13 12 12 11 12 13 14 14 14 13 13 12 12 11 10 8 7 7 7 7 7 8 9 9 11 11 11 10 10 9 8 9 9 11 12 13 14 14 14 15 16 16 16 17 19 19 19 19 20 20 21 21 22 21 21 20 20 21 22 22 22 23 23 22 20 17 15 14 13 12 13 13 14 13 11 10 9 9 9 9 9 9
16 16 14 13 12 12 11 12 13 14 14 14 14 13 13 12 11 10 9 8 7 7 7 7 8 9 10 11 11 11 11 11 10 9 9 9 10 11 12 13 13 14 14 15 16 16 17 18 18 18 18 19 20 21 21 21 21 21 21 22 22 24 23 21 21 21 21 20 17 14 12 11 11 11 11 11 12 10 9 9 10 10 11 11 11
16 16 14 12 11 11 11 12 13 14 14 14 14 14 13 12 11 10 9 9 8 8 8 8 9 10 10 11 12 12 11 11 11 10 9 10 10 10 12 13 14 13 13 14 15 15 16 17 17 17 17 18 19 20 20 21 21 22 22 23 24 26 26 24 21 20 20 20 19 15 12 11 10 10 10 10 11 11 11 12 12 12 13 13 13
15 14 12 11 11 10 10 12 14 14 14 14 14 13 13 12 11 10 10 10 9 8 8 9 9 10 11 12 13 13 12 12 12 12 10 10 10 10 11 13 14 13 12 13 14 14 15 16 16 16 16 17 18 18 19 20 21 21 22 23 25 27 28 27 24 23 23 22 19 17 14 13 12 12 12 12 13 14 14 14 14 14 14 14 15
11 11 10 10 10 9 10 12 13 14 14 14 13 13 12 12 11 11 11 11 11 10 10 10 10 10 11 12 13 14 13 13 13 13 12 11 10 11 11 12 13 13 12 12 13 13 14 14 14 14 14 15 16 17 18 19 20 21 21 22 24 26 28 29 27 26 27 25 22 21 20 18 17 17 17 17 18 18 18 18 18 18 18 18 18
9 8 9 9 9 9 10 11 12 13 14 13 13 13 13 12 12 12 12 12 12 11 11 11 11 11 11 13 14 14 14 14 14 14 13 12 11 11 11 12 13 13 12 12 12 12 13 13 13 13 13 13 14 15 16 17 18 20 20 21 22 23 26 27 27 27 28 27 25 25 24 23 22 22 22 22 22 22 22 22 23 23 22 22 22
8 8 8 8 8 9 10 11 12 13 14 13 13 13 13 13 12 12 12 12 12 12 12 11 11 11 12 13 14 15 15 15 14 14 14 13 12 12 12 12 12 12 12 12 11 11 12 12 12 12 12 12 12 13 14 15 16 18 19 20 20 22 24 24 26 28 28 27 26 26 26 25 25 24 24 24 24 24 24 24 24 24 24 24 24
7 7 6 6 7 9 10 11 12 13 14 13 13 13 13 13 12 11 11 12 12 12 12 11 12 12 13 14 15 16 16 16 15 15 16 15 14 13 13 13 13 13 12 12 11 11 11 11 11 10 10 10 11 11 12 13 14 15 16 18 19 20 21 21 24 26 26 25 25 25 26 25 25 25 25 25 24 25 25 24 24 24 24 25 25
5 4 4 4 5 8 10 11 12 13 13 13 13 13 13 12 12 12 12 12 12 12 12 12 12 13 14 15 16 16 17 17 17 17 17 16 15 14 14 14 13 13 13 12 11 11 10 10 10 9 9 9 9 10 11 12 12 13 13 16 17 17 18 19 22 24 23 23 24 24 24 24 24 24 24 24 24 24 24 24 24 24 24 24 24
3 3 3 4 5 7 9 11 12 13 13 13 13 13 13 13 12 12 12 12 12 12 13 13 13 13 15 16 16 17 18 18 18 18 18 17 16 15 14 14 14 13 13 12 12 11 10 10 9 8 8 7 8 8 9 10 10 11 11 13 14 14 16 19 21 21 21 21 21 22 22 22 22 22 23 22 23 23 23 23 23 23 23 23 23
3 3 4 5 6 8 10 11 12 13 13 13 13 13 13 13 13 13 13 13 13 13 13 13 13 13 14 16 16 17 18 19 19 19 19 18 17 16 15 14 14 14 13 12 12 11 11 10 9 8 7 6 7 7 7 8 9 9 10 11 12 12 13 18 20 19 18 19 19 20 19 20 20 20 20 20 20 21 21 21 21 21 21 21 22
4 4 5 6 7 9 10 12 12 13 13 13 13 13 14 14 14 14 14 13 14 14 14 14 13 13 13 14 16 18 19 19 19 20 20 20 19 18 17 16 15 14 14 13 13 12 12 11 10 8 7 6 6 5 6 6 7 7 8 9 10 10 10 15 18 16 16 17 17 17 17 17 18 18 18 18 18 18 18 18 19 19 19 19 20
4 5 5 7 8 9 10 11 12 12 13 14 14 15 15 15 15 14 14 14 14 14 14 13 13 12 12 13 16 18 19 19 19 20 20 20 20 19 18 17 15 15 14 14 13 13 12 11 11 9 8 6 5 5 5 5 5 6 7 7 9 9 8 12 14 13 14 14 14 14 14 15 15 16 16 16 16 16 16 16 17 17 17 17 17
5 6 6 7 8 9 10 11 11 13 14 15 15 15 15 15 15 15 14 14 14 14 14 13 12 12 12 13 15 18 19 20 20 20 20 20 19 19 18 17 16 15 15 14 13 13 12 11 11 10 10 7 5 4 4 4 5 5 6 6 7 8 7 9 11 11 11 11 11 12 12 12 13 13 14 14 14 14 14 14 15 15 15 15 15
5 7 8 8 8 9 10 11 12 14 15 15 15 15 15 15 15 15 15 15 15 14 14 13 13 12 12 12 14 16 18 19 20 20 20 19 19 19 18 17 16 15 15 14 14 13 12 12 11 11 11 7 7 6 5 5 4 5 6 6 6 7 7 7 9 9 9 9 9 9 9 10 10 11 11 12 12 12 12 13 13 13 14 14 14
5 7 9 10 9 10 11 12 14 15 15 15 15 15 15 15 15 15 15 15 14 14 14 13 13 13 13 13 13 14 16 18 19 19 19 19 19 19 19 18 17 16 15 15 15 14 14 13 12 12 11 9 9 8 6 6 6 6 6 6 6 7 7 6 7 7 7 7 7 7 7 7 7 8 8 9 9 10 10 11 11 12 12 12 12
6 8 9 11 10 11 12 14 15 15 15 15 14 15 15 15 15 15 15 15 14 14 13 13 12 12 13 12 13 13 14 16 18 19 20 19 19 19 19 19 18 17 15 15 15 15 15 14 13 13 12 11 10 9 8 7 8 8 7 7 7 7 7 7 6 6 6 6 5 5 4 4 4 4 5 6 6 7 8 8 9 9 10 10 11
7 9 10 11 12 13 15 15 16 15 14 14 14 15 15 14 14 15 15 15 14 14 13 13 12 12 12 12 13 13 14 15 16 18 20 20 19 19 19 19 19 18 16 16 16 16 15 15 14 14 13 12 11 10 10 9 10 10 10 9 9 8 7 8 8 8 7 6 5 4 4 3 2 2 2 3 4 4 5 6 7 7 8 8 9
7 9 11 11 13 15 16 16 15 15 14 14 14 14 14 14 15 16 16 15 14 13 13 13 12 12 12 13 14 13 14 15 15 16 18 19 19 19 20 19 19 18 17 16 16 16 16 15 15 15 15 13 13 13 11 12 13 12 12 12 11 10 9 9 9 9 8 7 7 6 5 4 4 3 2 1 1 2 3 4 5 6 6 7 7
8 9 11 12 14 16 16 16 16 15 14 14 14 14 15 15 17 17 16 15 13 13 13 13 13 13 13 14 14 13 15 15 15 15 16 17 17 18 19 19 19 18 18 17 17 17 16 16 15 16 16 15 16 16 14 15 16 15 15 15 13 12 12 11 11 10 10 9 8 8 7 7 6 5 5 4 4 4 4 4 5 5 5 6 6
10 10 11 13 15 17 16 16 16 14 13 13 14 15 16 17 17 16 15 14 13 14 14 14 14 14 15 14 14 15 16 16 16 14 14 15 16 17 18 18 19 18 18 19 18 18 18 18 17 18 18 18 18 19 19 17 17 18 17 17 16 15 15 14 13 12 10 10 10 9 9 9 8 8 7 7 6 6 6 6 6 6 6 6 7
12 12 13 15 17 18 17 17 16 14 14 14 14 15 16 17 16 15 14 13 13 15 15 13 13 15 15 14 15 16 16 16 16 14 14 15 15 16 17 17 19 19 18 18 18 19 19 19 18 19 19 20 20 21 21 18 19 20 17 16 17 17 17 16 15 15 13 12 12 11 11 11 11 10 10 9 9 8 8 8 7 7 7 7 8
13 14 15 16 18 18 17 18 17 15 15 15 15 16 17 17 16 14 12 12 13 16 15 13 14 15 15 15 16 16 16 16 16 16 15 14 15 16 16 17 18 18 18 18 18 18 18 17 17 17 18 19 19 19 20 18 17 17 15 15 17 16 17 17 17 17 17 16 15 14 13 12 13 12 12 12 11 11 10 9 8 8 8 8 9
14 14 16 18 19 18 18 18 17 18 17 17 17 17 18 17 16 15 13 13 15 16 15 14 15 16 16 16 15 15 15 16 16 15 15 15 17 17 17 17 17 18 18 18 17 16 15 15 15 15 16 17 17 17 17 14 11 11 14 15 15 15 16 16 16 17 17 17 16 16 15 14 14 14 14 13 12 11 10 10 9 9 9 10 10
14 15 17 19 20 19 19 18 18 18 17 16 16 18 19 18 16 15 13 15 16 16 16 14 15 17 16 14 14 15 15 16 16 15 17 19 18 17 17 17 18 18 17 17 16 13 14 15 14 15 16 16 16 15 12 8 7 9 13 14 13 14 15 15 15 16 16 16 16 16 16 15 15 15 15 14 13 12 11 10 10 10 10 11 12
15 16 18 20 21 21 19 18 18 17 17 16 17 19 21 18 15 15 14 16 17 16 16 14 15 16 15 13 13 15 17 16 16 17 19 18 16 17 18 17 18 18 17 17 16 14 15 16 16 16 16 16 15 13 9 7 9 12 12 13 14 13 13 13 14 16 15 15 16 15 15 15 15 15 14 13 13 12 11 11 11 11 12 13 13
17 18 21 24 24 22 19 17 16 17 17 17 18 18 19 17 13 12 15 17 16 16 16 15 15 13 12 13 13 15 17 16 17 19 18 16 17 18 18 16 16 17 16 16 15 14 15 16 16 16 15 15 14 11 10 10 11 12 11 12 13 13 12 12 13 15 13 13 14 14 14 14 14 14 13 13 12 12 12 12 13 13 14 14 15
18 20 24 24 21 19 19 18 15 16 18 18 17 14 18 18 10 9 15 17 15 15 16 15 14 12 13 14 15 16 18 18 18 18 16 16 16 17 17 15 15 15 14 14 13 13 14 14 15 15 14 14 12 11 12 12 12 11 10 11 13 13 12 11 12 12 12 11 12 13 13 13 13 12 12 12 12 12 13 13 14 14 14 14 14
18 21 24 21 16 18 19 16 15 17 20 18 13 12 18 18 9 10 15 15 14 14 14 14 13 14 15 15 16 18 19 20 18 15 15 16 15 15 15 14 13 13 12 12 12 13 13 13 13 13 13 13 12 13 13 13 12 11 11 12 12 12 12 11 11 12 12 11 11 12 12 12 12 11 11 12 12 13 13 13 13 12 12 12 11
17 20 22 17 15 18 17 14 14 19 20 14 9 13 18 17 11 12 14 13 14 15 15 14 14 16 15 16 18 18 18 18 16 14 14 15 15 15 14 13 12 12 12 11 11 12 12 11 11 11 12 13 14 14 13 14 14 12 12 11 11 11 11 10 11 12 12 11 11 11 11 11 11 12 11 11 12 11 11 10 10 9 9 8 8
16 19 21 16 14 16 14 14 17 19 16 9 7 14 17 16 12 12 13 13 15 16 17 16 15 16 16 17 17 16 15 17 17 17 15 15 16 15 14 13 12 12 12 12 12 12 12 10 10 12 12 13 15 14 13 14 14 13 12 11 11 11 10 10 10 11 11 10 10 9 10 10 11 11 10 9 9 8 8 7 6 6 6 6 6
17 19 22 17 11 11 10 12 17 18 13 7 7 13 16 14 12 12 13 14 16 17 18 17 15 15 16 15 15 15 15 16 18 18 17 15 16 16 14 12 11 13 14 14 13 12 11 11 11 12 12 14 15 12 11 13 14 13 12 11 12 11 10 10 10 10 10 8 8 8 8 8 8 7 7 7 7 7 6 5 4 4 4 4 4
17 19 21 17 9 8 9 11 16 15 12 9 9 12 15 14 13 14 14 14 16 17 17 17 14 14 14 13 13 13 13 14 16 18 17 15 16 17 16 15 14 15 15 13 12 10 11 12 13 12 12 13 14 11 11 13 14 14 12 11 12 12 12 12 12 10 8 8 8 7 6 6 6 4 4 6 7 5 4 3 3 3 3 2 2
17 19 20 17 10 8 9 10 15 15 13 12 11 13 15 15 14 14 13 13 15 16 16 16 15 15 13 12 12 12 13 14 15 18 18 15 17 18 18 18 16 16 14 11 10 10 11 12 11 11 11 12 11 10 12 14 15 14 12 12 13 14 13 13 12 8 7 8 7 6 6 6 5 3 4 6 5 5 4 3 3 2 2 2 2
18 19 20 18 12 9 9 10 14 14 13 13 12 14 17 17 15 14 12 12 14 15 15 15 14 15 14 13 13 13 15 15 16 18 19 17 18 20 19 19 17 15 12 10 10 9 10 11 10 11 10 10 11 12 13 14 14 13 13 14 14 13 12 11 9 6 6 7 5 7 7 6 6 5 6 6 5 5 6 4 3 3 3 3 3
19 19 19 18 13 10 10 11 13 13 14 14 11 12 16 16 13 12 12 12 14 14 14 14 14 15 15 14 13 15 16 16 17 18 20 20 18 17 18 19 17 13 11 10 9 8 10 11 11 12 10 9 11 12 13 14 13 13 13 13 12 11 11 10 8 7 7 6 5 7 9 8 7 7 6 7 6 5 6 5 3 3 4 4 3
20 19 19 18 15 12 11 13 13 12 14 15 13 12 13 13 12 12 12 13 14 14 14 14 14 14 14 13 13 15 15 14 15 16 18 18 16 16 17 17 14 11 11 10 8 9 10 10 10 10 10 9 11 12 13 14 12 11 11 10 9 10 10 9 8 9 9 7 6 5 6 7 5 5 5 7 6 5 5 3 3 3 2 2 1
20 19 19 18 16 15 14 15 14 12 14 16 15 13 12 13 13 12 13 14 13 12 13 13 13 13 13 13 13 14 13 12 11 12 13 15 15 16 17 14 11 10 10 9 8 8 9 8 8 7 6 7 9 10 12 12 10 9 9 8 8 9 10 10 8 8 8 8 7 5 5 5 4 4 4 6 6 5 4 3 3 3 1 1 1
21 20 20 19 17 16 15 15 14 13 14 15 15 14 13 14 14 13 13 13 12 11 11 11 12 14 14 14 14 14 14 12 9 8 10 12 12 13 14 11 10 10 10 9 9 9 8 8 8 8 7 6 8 9 9 9 9 9 9 9 9 10 10 10 9 7 7 7 8 7 6 5 4 4 4 5 6 6 5 4 3 3 1 1 2
21 20 20 19 17 17 16 15 14 14 14 14 14 14 13 14 14 13 13 13 11 11 10 10 12 13 14 14 13 13 12 10 8 8 9 10 10 10 11 10 9 10 10 9 9 9 8 9 9 9 8 7 8 8 8 8 10 10 9 9 10 10 10 11 10 9 9 8 8 8 7 6 4 4 4 5 5 5 5 4 3 3 2 2 2
22 21 20 20 18 18 17 15 14 14 14 14 14 15 13 13 14 12 13 13 11 10 9 9 11 13 15 15 13 11 10 9 8 8 8 9 8 10 10 10 10 10 9 9 10 9 8 9 9 9 9 8 8 8 9 11 11 10 10 11 11 11 11 11 11 11 10 10 10 9 7 7 5 4 5 5 5 5 4 4 3 2 2 2 2
25 22 21 21 19 19 18 15 13 13 14 14 15 15 13 14 14 13 13 12 10 9 9 10 12 13 14 13 11 10 8 7 7 7 8 8 8 9 11 11 11 10 9 10 10 9 9 10 10 10 10 9 8 8 9 9 10 12 12 11 11 11 11 11 12 12 10 10 10 9 8 7 6 6 5 5 5 4 4 4 3 2 2 2 2
27 24 23 22 20 20 19 16 13 13 15 16 15 14 13 14 14 14 12 10 10 10 9 10 10 11 11 10 9 9 7 6 7 7 7 7 7 8 9 10 10 10 10 10 10 9 9 10 10 9 9 9 7 7 8 7 10 12 11 11 10 9 10 11 11 11 10 9 10 10 9 8 7 6 6 5 4 4 5 4 3 3 3 2 2
27 25 24 23 21 20 19 16 13 13 15 16 15 13 14 14 13 13 13 12 12 11 10 9 8 8 9 9 8 7 7 7 7 7 6 6 6 7 8 9 10 9 9 10 10 10 10 10 11 9 9 9 7 8 8 8 9 9 9 10 11 10 11 11 11 10 9 9 9 9 9 8 7 6 6 5 4 4 4 4 4 4 3 3 2
27 25 24 23 22 21 19 17 14 13 15 15 14 14 14 14 13 14 15 14 14 12 10 9 9 9 8 8 8 7 7 7 7 7 6 6 7 7 8 8 9 9 9 9 9 10 11 12 12 8 8 10 8 9 10 10 10 9 9 10 11 13 14 12 11 10 10 9 8 8 8 7 6 6 5 4 4 4 4 4 5 5 4 3 2
27 24 23 24 23 22 19 16 14 13 14 14 13 13 14 14 14 16 16 15 14 12 11 11 11 11 10 9 9 8 7 6 6 6 6 5 6 6 6 6 7 8 8 9 9 11 12 13 11 8 9 11 9 10 12 13 13 11 11 11 12 14 15 13 12 12 11 10 8 7 6 6 6 5 5 4 4 4 4 5 4 4 3 3 3
27 24 23 24 24 22 18 16 15 13 14 14 13 12 14 15 17 17 15 14 14 14 13 13 12 12 11 10 9 8 7 6 5 5 5 4 4 5 6 6 6 7 8 8 9 10 11 12 12 9 11 11 10 11 12 12 12 11 12 11 11 12 13 13 13 13 12 10 7 6 5 5 5 4 4 4 4 4 4 4 3 3 3 3 4
27 25 24 25 25 22 18 16 14 13 14 15 13 12 14 17 18 16 15 16 16 15 15 14 13 12 11 9 8 7 6 5 4 4 4 4 4 4 5 5 6 7 7 8 8 9 10 11 12 11 11 12 12 13 11 10 9 10 12 11 10 11 11 12 13 11 9 8 7 6 5 5 5 4 4 3 4 4 4 4 3 3 3 4 4
Wind_Direction
210 206 198 197 200 202 203 205 210 212 210 204 198 192 186 180 172 161 150 146 142 136 126 120 119 119 121 125 126 128 135 132 123 114 109 104 102 100 98 97 94 91 87 83 80 78 77 75 71 67 62 58 56 55 53 51 50 52 60 66 70 75 79 88 100 105 106 107 107 111 114 116 116 114 115 115 111 108 107 106 102 96 92 87 84
208 205 203 203 205 208 208 205 208 210 210 203 197 192 188 185 178 169 159 153 149 146 137 131 131 130 128 131 131 133 141 139 132 122 115 109 105 104 102 100 97 93 89 85 82 79 78 76 72 68 63 59 57 55 53 52 51 53 62 70 74 78 84 91 98 102 104 106 109 111 113 114 111 111 111 110 109 106 102 96 93 94 92 88 83
213 207 202 207 212 214 214 208 207 210 210 203 197 193 191 188 183 176 166 159 154 157 152 147 143 140 136 135 136 138 147 146 140 131 121 114 110 108 106 103 100 95 92 88 85 82 80 78 74 69 65 61 59 56 55 54 54 55 62 72 77 81 87 93 97 99 100 104 105 105 108 109 104 107 108 106 105 102 97 90 87 86 84 82 78
218 212 200 204 213 214 215 209 207 209 209 204 199 195 192 190 187 180 173 169 164 169 166 163 156 149 144 141 142 146 152 154 149 140 130 122 116 113 110 107 103 98 95 92 89 86 83 80 76 71 67 63 61 58 57 57 58 59 63 71 78 82 86 93 98 99 99 100 101 100 103 105 102 102 104 104 104 101 92 83 79 77 72 70 69
218 215 203 199 205 208 210 208 207 207 208 204 201 197 193 192 189 182 180 180 177 180 180 175 167 160 153 149 150 152 157 159 154 148 140 131 125 120 116 113 108 102 98 95 93 90 87 82 77 72 68 66 63 60 59 59 61 62 65 71 78 81 83 88 96 101 101 101 100 99 103 106 101 97 97 97 98 97 92 82 76 75 74 73 74
212 213 209 201 197 200 207 207 205 205 206 204 203 198 195 193 190 186 185 189 191 190 190 186 177 169 162 158 156 158 162 162 160 157 152 142 136 130 124 120 114 108 103 100 97 95 90 84 78 73 69 68 66 63 62 62 64 66 68 72 76 80 81 82 88 97 99 98 96 95 103 108 102 95 91 90 90 90 90 86 82 82 82 83 82
204 206 209 200 190 193 205 205 203 204 205 205 203 199 195 194 191 189 190 195 198 198 198 194 187 179 170 165 163 164 166 167 166 164 163 154 147 140 132 127 121 117 112 108 105 100 95 88 81 77 73 70 69 67 65 66 67 68 71 74 76 79 81 82 83 89 90 87 90 94 98 102 100 95 90 87 86 85 85 85 85 85 84 84 83
193 195 194 186 181 185 201 204 202 204 206 206 204 200 197 195 194 192 193 197 201 204 205 200 195 188 178 172 169 168 170 171 173 171 171 165 156 148 141 133 129 126 122 118 114 108 102 94 87 83 78 74 72 71 70 70 71 71 73 75 78 80 82 83 83 84 84 84 88 93 93 93 93 91 88 85 82 82 83 83 83 82 80 80 79
172 172 172 170 173 181 196 204 204 206 207 207 205 202 199 196 196 194 195 199 203 207 210 206 200 194 185 178 174 172 173 175 178 177 176 174 164 156 151 140 136 135 131 128 123 116 110 102 95 89 84 79 75 75 75 74 75 75 75 77 80 82 84 85 85 83 84 86 86 87 88 88 87 86 84 82 81 81 80 81 80 80 79 79 78
150 156 164 168 175 185 195 201 206 209 207 206 205 203 199 198 196 196 198 201 206 210 213 211 203 198 190 183 180 177 176 179 182 181 180 179 170 164 158 148 144 142 139 135 132 125 117 112 104 96 90 85 80 78 79 79 80 81 81 81 82 84 87 88 87 85 85 86 86 86 85 85 84 83 82 81 81 80 79 79 79 79 79 79 78
151 165 172 175 181 190 196 202 208 209 206 205 203 202 200 198 197 198 201 205 209 212 215 214 208 201 195 189 185 182 180 182 185 187 185 182 176 171 164 156 152 149 148 144 141 135 126 120 114 106 98 92 87 83 83 84 85 86 87 86 86 88 89 89 87 86 86 87 87 87 86 85 84 84 83 82 81 80 79 78 78 78 78 78 77
163 178 184 192 198 200 203 207 210 209 206 203 202 201 200 198 199 200 203 208 210 213 216 216 213 206 200 195 191 187 183 184 188 192 191 185 180 177 169 161 158 156 154 151 149 143 136 130 123 117 107 99 93 89 88 88 88 90 91 91 92 92 91 89 88 89 90 89 89 88 87 86 86 85 84 83 82 81 80 79 78 78 78 77 77
185 214 227 233 225 217 213 212 215 212 207 203 203 201 200 201 201 203 205 208 211 215 218 219 217 210 205 199 195 191 187 186 189 195 195 189 184 181 174 165 162 162 158 155 155 151 146 141 136 128 119 109 100 96 94 93 93 93 95 97 99 98 96 93 91 92 92 91 91 89 88 88 87 85 84 83 82 81 81 80 78 77 76 76 76
222 236 247 249 237 231 223 219 219 215 208 205 204 203 202 204 204 206 207 208 211 215 218 220 219 213 208 202 198 195 193 191 191 196 196 193 188 183 177 170 167 165 162 161 161 160 157 152 148 139 132 124 111 104 102 102 101 100 100 102 104 102 101 98 96 96 96 94 92 90 89 88 87 85 84 83 82 81 80 80 79 78 76 75 75
240 241 246 251 242 238 230 225 222 215 209 206 205 205 205 206 207 208 208 210 213 216 218 220 220 216 211 203 200 199 197 196 196 197 197 196 191 186 182 175 173 170 166 168 169 168 165 159 155 151 149 141 126 118 114 113 112 112 112 111 109 107 106 103 102 101 99 98 95 93 90 88 86 84 83 81 80 79 78 78 78 77 77 75 74
237 244 246 247 244 241 234 230 225 216 211 208 206 206 206 207 209 209 210 213 215 218 219 220 222 220 214 205 202 203 202 200 199 200 200 199 194 190 187 181 178 176 172 175 175 170 170 165 159 159 160 154 144 138 133 131 127 128 128 124 120 117 113 108 108 107 104 102 98 96 92 88 85 83 80 78 77 76 75 73 73 72 72 72 71
236 247 248 243 243 237 231 230 225 218 212 208 206 206 207 208 210 212 213 216 218 220 219 220 221 220 215 209 205 205 204 202 202 203 203 202 199 195 191 186 182 183 180 180 179 174 175 171 167 166 164 168 179 170 160 161 151 149 149 145 139 132 127 117 116 114 112 108 103 99 94 90 86 82 79 76 74 72 71 69 67 65 66 66 65
238 248 252 246 240 230 222 220 219 217 212 208 207 207 208 210 212 213 215 218 220 220 218 218 219 218 216 213 209 205 203 203 203 205 205 204 202 199 196 192 187 188 187 184 183 181 179 177 177 174 168 179 199 195 193 193 183 176 171 166 164 155 147 138 131 127 124 118 112 105 98 94 88 84 80 76 72 69 67 64 61 59 58 58 57
238 247 251 246 234 224 217 213 214 213 211 209 207 209 212 214 216 216 218 221 221 221 219 218 218 218 217 217 212 204 201 203 203 205 208 208 205 202 200 197 192 191 190 188 186 185 187 185 183 179 169 171 188 203 216 211 207 204 196 190 187 180 174 166 156 146 140 134 127 118 108 101 93 86 81 76 70 65 61 58 56 53 51 50 49
231 240 244 242 228 218 213 210 211 210 210 211 211 214 216 218 221 222 223 223 223 223 221 221 220 220 220 217 213 206 204 205 204 205 210 211 208 205 202 201 198 194 191 190 189 189 193 193 188 184 173 170 185 211 224 221 221 219 217 213 207 202 194 189 184 177 171 164 154 141 133 123 110 96 84 73 64 57 52 49 47 45 42 42 41
225 235 240 237 226 215 209 208 210 209 209 212 215 219 221 223 225 227 229 227 226 225 224 225 221 220 219 216 215 211 209 208 205 205 207 210 209 207 206 204 202 198 193 190 192 192 195 197 192 190 188 187 200 215 223 228 230 226 224 224 220 217 209 203 200 197 198 195 190 185 181 179 167 139 101 70 54 45 37 36 35 33 31 30 29
230 236 237 232 223 213 207 208 209 209 209 214 218 222 224 226 228 229 230 231 230 228 228 226 223 222 218 216 215 210 209 208 206 206 205 206 206 207 207 206 205 202 195 191 193 193 194 196 194 197 198 201 212 212 214 225 232 229 224 224 223 222 221 219 214 209 210 210 210 212 214 222 226 234 245 295 350 359 3 10 12 14 14 14 15
237 236 234 228 219 210 209 210 210 209 212 218 222 225 226 227 229 229 230 232 232 231 229 228 226 223 217 215 212 208 209 204 198 203 203 203 205 205 206 206 206 204 198 193 193 193 192 194 197 200 201 207 214 210 209 217 227 231 225 224 222 222 224 225 227 226 225 223 223 225 228 236 244 253 261 270 286 301 314 327 337 343 350 353 355
235 232 229 225 218 210 209 212 211 211 214 220 225 227 226 227 230 230 230 229 231 233 228 228 227 224 218 208 206 209 208 203 198 201 199 197 200 202 203 203 205 204 200 198 196 194 193 195 198 199 202 210 213 214 214 214 222 227 223 222 222 222 224 225 228 229 234 236 232 233 236 242 249 256 263 269 276 284 293 301 310 317 325 331 332
229 227 225 223 218 210 209 213 213 213 214 216 222 227 228 228 231 231 230 226 229 233 229 226 227 228 221 204 207 215 212 208 200 197 196 190 190 193 197 199 201 201 200 201 199 195 195 194 195 198 204 210 215 218 221 226 228 221 214 218 222 224 226 227 228 225 227 234 234 236 240 246 252 257 264 268 273 277 284 291 298 303 308 312 314
224 223 223 224 223 213 210 215 214 214 213 212 218 226 229 226 228 231 230 229 229 234 231 220 225 234 225 209 212 219 219 216 199 193 198 191 186 188 193 195 194 194 193 194 192 189 190 190 193 202 210 216 223 223 226 234 225 206 202 214 220 223 228 229 232 231 228 231 235 238 241 247 253 258 262 266 270 274 279 285 289 293 296 298 299
227 227 226 229 229 219 217 219 215 215 211 211 218 224 230 228 230 234 234 237 234 236 231 210 220 239 230 211 206 215 219 216 204 199 205 200 193 189 190 189 184 183 183 182 182 186 192 196 203 214 223 226 229 232 234 227 200 191 202 209 217 222 228 231 234 237 234 233 234 238 242 247 254 257 260 264 268 272 275 279 280 283 285 287 289
233 234 234 235 231 221 219 217 215 220 218 216 223 229 233 231 234 235 231 240 238 236 234 217 226 242 238 215 196 206 214 213 211 208 209 203 192 184 183 181 176 178 180 178 184 196 205 208 216 225 231 232 238 248 249 221 193 209 210 204 214 221 228 232 235 239 238 237 236 236 238 241 248 253 257 261 265 269 271 273 276 279 282 284 286
239 239 237 236 230 222 219 214 214 225 229 230 236 239 239 231 233 240 234 237 238 235 236 231 235 243 243 226 204 211 217 216 212 204 204 198 184 179 177 176 176 182 185 187 194 205 212 216 223 227 230 233 243 252 252 236 223 224 219 209 211 216 227 233 237 240 237 238 240 239 238 238 241 247 252 256 260 264 267 271 274 278 282 283 284
241 239 233 229 225 223 219 212 218 231 235 237 240 246 252 242 230 240 242 240 236 234 234 232 240 243 241 234 222 219 215 213 206 195 197 191 181 179 178 179 184 189 192 197 204 209 216 220 221 224 230 238 241 237 230 234 233 228 226 218 213 212 222 231 237 244 242 240 241 242 241 240 240 242 246 251 255 260 265 270 274 277 279 278 277
242 240 234 230 230 231 224 211 216 237 240 237 240 251 262 255 232 229 245 247 240 235 231 229 236 233 228 229 222 218 217 222 216 197 191 188 185 185 186 191 194 197 201 208 214 217 222 221 221 226 231 236 237 232 225 226 232 229 220 218 218 213 216 227 235 243 245 240 241 243 243 241 239 240 243 247 251 257 263 267 271 272 271 269 267
241 241 239 241 248 247 241 224 211 230 239 236 241 253 258 260 255 242 248 255 255 250 238 227 228 228 229 231 227 224 222 227 223 201 191 191 191 192 193 196 195 199 206 213 218 223 227 223 225 230 225 224 227 232 226 222 227 216 211 220 219 215 218 225 235 242 240 235 237 240 241 242 242 241 243 247 249 253 258 260 261 261 260 259 258
241 246 248 249 255 259 263 257 233 233 237 235 245 251 254 260 262 253 251 254 258 263 257 241 232 231 233 239 238 231 219 215 213 198 193 194 194 194 192 191 193 200 205 216 228 233 236 229 227 229 224 223 223 224 220 220 223 208 208 224 219 216 220 221 231 240 239 234 234 236 239 243 245 246 245 245 246 246 247 248 249 249 249 249 250
242 252 258 252 253 265 274 271 260 250 246 246 256 251 252 261 263 257 252 251 255 261 265 256 241 235 235 240 238 228 213 204 200 193 190 194 195 193 189 190 197 206 213 227 235 233 237 234 232 232 227 228 225 222 217 216 219 210 207 217 216 216 217 218 224 233 240 239 233 228 231 240 240 237 237 236 232 229 230 231 234 235 236 239 241
240 250 257 254 250 263 261 259 264 267 270 274 259 255 261 268 264 257 253 254 258 261 265 262 249 243 242 239 228 220 213 205 203 196 190 195 199 194 189 194 204 215 223 231 229 222 228 228 227 228 223 227 225 219 219 214 213 217 216 216 217 215 212 218 220 223 232 236 236 229 225 238 237 219 210 212 209 207 214 211 208 215 219 228 235
236 245 255 258 251 258 255 256 266 271 279 277 258 257 268 270 261 259 255 250 257 263 268 266 255 247 241 232 221 217 217 214 207 196 191 198 202 196 195 202 212 220 222 223 221 217 225 225 226 227 219 223 223 213 217 219 220 224 223 219 216 211 207 213 217 215 220 219 223 228 217 217 228 218 182 185 194 186 186 185 179 188 190 199 217
233 242 255 259 246 248 257 261 265 264 266 267 264 263 269 269 261 258 253 248 257 264 267 267 258 247 241 231 217 215 220 213 198 191 192 198 200 201 208 215 217 219 217 213 221 224 229 231 228 227 221 223 223 213 214 220 225 223 218 217 214 209 207 213 215 205 216 217 201 204 205 192 193 191 154 155 170 165 158 161 156 159 155 149 160
229 239 252 258 251 251 261 266 267 265 264 264 267 271 274 272 261 250 247 250 258 263 265 264 255 247 246 236 214 213 216 205 197 197 198 201 206 212 219 223 221 220 214 213 226 231 235 236 223 219 221 219 214 210 213 216 218 217 216 215 212 213 212 215 216 201 221 227 186 176 178 163 150 151 145 136 144 161 156 149 139 134 131 124 124
228 237 248 257 263 263 267 280 279 275 275 274 277 281 278 273 260 248 248 253 259 265 262 258 254 247 242 232 212 208 210 202 200 201 203 207 209 214 221 223 220 218 212 214 226 230 235 236 220 209 201 204 214 212 215 215 210 210 216 216 216 221 217 212 212 206 214 214 182 170 155 143 140 141 138 125 134 162 155 144 133 130 125 116 107
229 239 248 258 269 271 275 288 289 286 286 286 289 290 282 271 255 248 252 257 264 264 255 249 250 244 229 216 207 204 203 205 201 193 199 206 205 210 218 218 214 212 213 216 223 227 236 243 233 214 185 190 213 213 216 217 209 210 214 212 214 215 207 203 203 197 193 178 166 158 129 124 130 133 132 126 136 153 142 128 130 134 131 111 92
232 242 251 258 268 275 282 288 290 290 288 287 288 286 277 262 249 250 256 259 261 256 250 244 234 228 218 209 210 206 198 203 201 189 198 206 207 212 211 206 206 212 217 218 219 222 234 244 246 237 206 199 213 215 224 219 201 206 209 194 188 190 187 186 189 186 176 158 149 144 127 127 136 140 136 132 137 146 139 133 135 131 104 333 307
234 242 251 257 265 275 281 284 286 287 283 281 281 277 265 248 242 249 254 255 252 244 247 244 223 216 215 212 213 209 198 195 195 187 198 206 206 208 207 204 207 216 219 219 220 220 225 235 241 241 229 223 224 222 231 218 191 193 196 184 179 181 182 181 182 179 170 160 151 149 147 149 159 157 148 144 144 151 150 145 145 140 149 288 303
235 242 250 256 262 271 277 281 283 282 279 277 276 274 261 243 240 246 250 252 242 225 228 236 224 214 207 201 203 205 199 196 199 197 205 211 208 211 216 213 213 220 222 223 226 223 225 233 240 245 236 229 231 229 223 203 189 186 181 180 183 181 182 181 179 176 173 171 161 157 162 162 161 155 151 155 154 154 150 145 151 156 178 226 265
239 244 251 256 259 266 277 281 279 278 277 276 273 272 263 249 245 242 242 247 239 218 210 214 212 204 193 184 184 197 206 207 210 209 211 214 214 220 223 221 220 221 220 223 227 226 230 234 237 245 244 229 222 231 219 188 176 182 177 177 183 179 180 180 176 175 175 174 166 162 167 163 161 166 169 171 168 161 152 153 166 180 199 198 199
244 247 250 256 259 265 275 278 275 274 274 273 270 269 265 256 247 239 237 235 229 216 206 205 199 193 190 181 179 194 207 211 211 211 208 205 211 220 221 222 223 219 218 224 226 225 229 236 237 240 247 239 216 221 222 191 178 186 182 180 186 183 182 181 178 178 177 174 168 164 166 168 171 182 186 185 178 165 159 168 182 186 185 182 196
246 249 250 255 259 263 271 275 272 270 271 271 270 268 265 255 242 236 229 208 201 199 192 197 189 182 185 179 178 184 187 194 202 206 207 202 207 215 212 217 224 221 216 217 225 229 229 237 241 239 247 247 229 225 227 212 199 194 184 182 189 187 181 184 187 184 181 178 173 168 169 174 182 192 192 190 182 167 165 176 184 180 177 194 222
246 248 250 253 257 260 267 271 270 266 268 271 271 270 268 256 239 223 207 187 188 189 181 184 179 174 174 166 167 171 170 176 183 188 192 193 200 207 205 211 222 223 217 214 220 229 228 233 238 235 240 243 229 225 226 216 206 198 191 187 187 185 181 187 194 192 193 190 179 176 178 183 192 197 194 192 186 173 170 176 179 180 184 199 225
243 246 248 251 253 257 264 269 268 264 267 270 269 270 265 250 228 206 190 182 186 185 177 175 169 165 157 152 157 159 159 162 165 171 175 183 191 196 201 208 216 221 221 218 219 225 227 231 231 221 235 246 224 209 215 209 200 194 192 192 193 190 185 188 195 195 203 201 186 183 188 194 200 198 198 193 185 182 175 175 177 181 187 199 221
239 242 244 248 250 254 260 264 265 264 264 264 264 265 253 232 211 194 186 183 183 176 168 166 163 159 155 153 153 150 153 155 156 159 163 174 181 183 192 204 216 224 225 222 222 227 229 237 239 215 222 242 227 210 213 202 194 189 186 193 200 195 186 188 198 202 202 196 189 191 192 199 205 200 199 191 186 187 175 169 175 183 194 199 200
235 238 240 244 246 251 256 258 262 263 259 258 259 256 240 218 200 191 190 187 179 169 162 162 158 153 150 148 146 148 154 157 156 158 166 176 177 173 177 190 211 226 232 232 230 232 232 239 245 226 213 227 230 226 220 199 193 193 188 192 202 200 191 190 199 208 202 188 183 194 197 203 210 204 200 196 194 192 176 171 179 191 203 197 183
232 232 234 240 243 247 252 254 259 259 255 256 254 243 229 212 198 195 195 186 175 165 160 157 153 149 146 145 147 149 151 156 160 165 179 190 195 187 178 184 199 216 230 237 241 244 241 240 245 237 215 215 223 229 226 209 205 205 196 194 197 200 204 203 202 210 208 188 182 196 210 216 214 208 208 212 207 193 182 183 188 198 205 197 181